ゲーレルス第2彗星

78P/Gehrels 2 (1997)

English version
Home page
Updated on March 18, 2012

---------------------------------------------------------------------

・ プロフィール

・ 軌道要素

Epoch 1997 Aug. 20.0 TT = JDT 2450680.5
T 1997 Aug. 7.04355 TT                                  MPC
q   2.0002384            (2000.0)            P               Q
n   0.13687934     Peri.  192.76700     +0.72730107     -0.68406815
a   3.7288717      Node   210.62837     +0.63887867     +0.70436897
e   0.4635808      Incl.    6.25779     +0.25073331     +0.18951287
P   7.20
From 4943 observations 1996 June 18-2012 Mar. 15, mean residual 0".6.
     Nongravitational parameters A1 = +0.76, A2 = -0.1245.

・ 星図

・ 1996年 5月 7日〜1997年 6月11日
・ 1997年 6月11日〜1998年 8月25日

・ 光度変化

        m1 = 1.3 + 5 logΔ + 31.5 log r  [   ,  0]  (              〜1997年 8月 7日)
        m1 = 7.8 + 5 logΔ + 10.0 log r  [  0,220]  (1997年 8月 7日〜1998年 3月15日)
        m1 = 2.3 + 5 logΔ + 23.0 log r  [220,   ]  (1998年 3月15日〜               )

---------------------------------------------------------------------

軌道要素はM.P.E.C. 2012-F11に掲載されたものです。
星図は StellaNavigator Ver.2.0 for Windows (アストロアーツ 編著 / アスキー出版局刊) で作成したものです。
光度グラフはComet for Windowsで作成したものです。

---------------------------------------------------------------------

Copyright(C) Seiichi Yoshida (comet@aerith.net). All rights reserved.